{"data":{"norad_id":51111,"intl_designator":"2022-005H","name":"STARLINK-3173","alt_names":[],"object_type":"PAYLOAD","status":"ACTIVE","operator":null,"country":"US","launch_date":"2022-01-19","launch_site_code":"AFETR","launch_vehicle":null,"mission":null,"orbit_class":"UNKNOWN","rcs_meters":null,"size_class":null,"mass_kg":null,"dimensions":null,"purposes":["comms"],"wikipedia_slug":null,"has_3d_model":false,"image_url":null,"decayed_at":null,"tle_current":{"epoch":"2026-09-20T03:49:51.918816Z","epoch_age_seconds":77776,"freshness":"FRESH","line1":"1 51111U 22005H   26263.15962869 -.00000473  00000+0 -26451-5 0  9991","line2":"2 51111  53.1598 125.6508 0001275  91.0122 269.1027 15.35396224258371","mean_motion":15.35396224,"eccentricity":0.0001275,"inclination_deg":53.1598,"raan_deg":125.6508,"arg_perigee_deg":91.0122,"mean_anomaly_deg":269.1027,"bstar":-2.6451e-6,"rev_number":25837,"period_min":93.786866053931,"perigee_km":458.87202384306,"apogee_km":460.61568346074,"semimajor_km":6837.8808536519,"source":"CELESTRAK","updated_at":"2026-09-20T09:00:39.585154Z"}}}